Showing default

FLOCK 4G 6, 62660

Orbit data source: Space-Track

FLOCK 4G 6, 62660 is a payload satellite owned by Planet (US) in SSO that was launched on Tue, 14 Jan 2025 UTC via an FALCON 9 launch vehicle from the Air Force Western Test Range (AFWTR). Payload-class satellites include a variety of spacecraft equipped with specific instruments for various scientific and technological missions. These include communications satellites like Starlink; space stations such as the ISS; scientific satellites like the Hubble; Earth observation satellites from companies like Planet Labs, Umbra, and HawkEye 360; GPS; miniature CubeSats for education and research; and military/defense satellites.

Loading next visibility...
Identifier
62660, 2025-009BD
Orbit
SSO
Country
Flag of USUS
Related business
Manufacturer
Planet
Mission
Operational Commercial Imaging
Bus & Motor
CUBESAT 3U, Unknown motor
Mass
5.7 kg wet, 5.7 kg dry
Launch date (UTC)
2025-01-14 (1 year ago)
Launch vehicle
FALCON 9
Launch site
Air Force Western Test Range (AFWTR)
Object type
Payload
Rocket body
Debris
Shape & HBR
Box + 2 Pan, 1.0 m
Radar Cross Section
0.072 m², Medium (>0.1 m² and < 1m²)

Expand to show TLE details & history
Last TLE update: 9 hours ago

TLE from 9 hours ago
0 FLOCK 4G 6
1 62660U 25009BD  26171.48528959  .00007479  00000-0  26366-3 0  9996
2 62660  97.3938 252.8850 0002110 340.3955  19.7204 15.29559186137009
Epoch: 2026-06-20T11:38Z
TLE epoch observation values (Epoch: 2026-06-20T11:38:49.020Z)
Latitude
-0.00002°
Longitude
169.48152°
Altitude
478.871 km
Speed
7.627 km/s
True Right ascension
16h 51m 32s
True Declination
0° 00' 00"
Sunlit
Object was in full shadow at epoch
Visualization orbit readout
Latitude
Unknown
Longitude
Unknown
Altitude
Unknown
Speed
Unknown
Apparent Right ascension
Unknown
Apparent Declination
Unknown
Sunlit
N/A
Visualization observer readout
Local Sidereal Time
07:23:30
Azimuth
Unknown
Elevation
Unknown
Doppler factor
Unknown
Orbital elements
Apogee altitude
475.527 km
Perigee altitude
472.636 km
Semi-major axis
6,852.219 km
Eccentricity
0.00021
Inclination
97.3938°
RAAN
252.885°
Arg. of periapsis
340.3955°
True anomaly
19.72856°
Mean anomaly
19.7204°
Eccentric anomaly
19.72448°
Mean motion
3.82645 °/min
Orbital period
94.08 mins
BSTAR
0.00026366
Loading maneuver chart data...
Computing Atmospheric mass density...
Loading historical data...
Loading historical data...
Loading historical data...
Loading historical data...
Loading historical data...
Loading historical data...
Loading historical data...

Documentation

Showing up to 5 results
|